Back to catalog

STARLINK-30178

AliveCommunicationsVLEO
NORAD 57447·PAYLOAD·🇺🇸 United States

Launched Jul 24, 2023 from Cape Canaveral Space Force Station

Loading…

Next Passes (next 24 hours)

TLE

FreshSource: CelesTrak SupGP

Epoch: Sep 14, 2026, 22:17 UTC

1 57447C 23105T   26257.92895833  .00032414  00000+0  11745-2 0  2577
2 57447  43.0001 271.3113 0001430 265.1869  11.6803 15.27548773    19

Track STARLINK-30178 in real time with AllMySat

Download on the App Store